This is the latest recevied weather packets stored in our database for station/object K8JCL-13. If no packets are shown the sender has not sent any weather packets the latest 10 day(s).
| Time | Temp. | Humidity | Pressure | Rain* | Wind** | Luminosity | Snow |
|---|---|---|---|---|---|---|---|
| 1777449677 | 12.22° C | 99% | 1011.7 hPa | 3.05 mm | - | 0 W/m² | - |
| 1777449373 | 12.78° C | 99% | 1011.9 hPa | 3.05 mm | - | 0 W/m² | - |
| 1777449069 | 12.78° C | 99% | 1011.8 hPa | 3.05 mm | - | 0 W/m² | - |
| 1777448462 | 12.78° C | 99% | 1012.2 hPa | 6.1 mm | - | 0 W/m² | - |
| 1777448158 | 12.78° C | 99% | 1012.2 hPa | 6.1 mm | - | 0 W/m² | - |
| 1777447854 | 12.78° C | 99% | 1012.3 hPa | 6.6 mm | - | 0 W/m² | - |
| 1777447550 | 12.78° C | 99% | 1012.5 hPa | 6.6 mm | - | 0 W/m² | - |
| 1777447247 | 13.33° C | 99% | 1012.7 hPa | 6.1 mm | - | 0 W/m² | - |
| 1777446945 | 13.33° C | 99% | 1012.4 hPa | 10.67 mm | - | 0 W/m² | - |
| 1777446642 | 13.33° C | 99% | 1012.3 hPa | 8.89 mm | - | 0 W/m² | - |
| 1777446338 | 13.33° C | 99% | 1012.7 hPa | 7.87 mm | - | 0 W/m² | - |
| 1777446035 | 13.33° C | 98% | 1012.5 hPa | 7.87 mm | - | 0 W/m² | - |
| 1777445731 | 13.33° C | 98% | 1012.8 hPa | 3.05 mm | - | 0 W/m² | - |
| 1777445426 | 13.33° C | 97% | 1012.7 hPa | 4.83 mm | - | 0 W/m² | - |
| 1777444820 | 13.89° C | 96% | 1012.7 hPa | 7.87 mm | - | 0 W/m² | - |
| 1777444515 | 14.44° C | 94% | 1012.9 hPa | 8.89 mm | - | 0 W/m² | - |
| 1777444213 | 14.44° C | 92% | 1012.6 hPa | 3.05 mm | - | 0 W/m² | - |
| 1777443909 | 14.44° C | 90% | 1012.7 hPa | 0 mm | - | 0 W/m² | - |
| 1777443605 | 14.44° C | 89% | 1013.1 hPa | 0 mm | - | 0 W/m² | - |
| 1777443299 | 14.44° C | 88% | 1012.3 hPa | 0 mm | - | 0 W/m² | - |
| 1777442998 | 14.44° C | 88% | 1011.7 hPa | 0 mm | - | 0 W/m² | - |
| 1777442694 | 14.44° C | 88% | 1011.9 hPa | 0 mm | - | 0 W/m² | - |
| 1777442390 | 14.44° C | 88% | 1011.8 hPa | 0 mm | - | 0 W/m² | - |
| 1777442087 | 14.44° C | 88% | 1011.9 hPa | 0 mm | - | 0 W/m² | - |
| 1777441782 | 14.44° C | 88% | 1011.9 hPa | 0 mm | - | 0 W/m² | - |
* Rain latest hour (hover to see other rain measurements)
** Current wind speed in m/s (hover to see current wind gust speed)